BEIDOU-2 G7 (41586 NORAD) Tracking and Keplerian Element Data

This shows tracking and keplerian element data for the satellite.

Feedback or suggestion? Click here.




ElementValue
Catalog41586
NameBEIDOU-2 G7
Epoch Orbit2937
Epoch Day159.91986519
Epoch Year2024
RAAN69.5731
Inclination1.8859
Eccentricity0.0009312
Argument of Perigee6.5996
Mean Anonmoly262.2048
Mean Motion1.00265991
Decay Rate-3.55E-06
L11 41586U 16037A 24159.91986519 -.00000355 00000+0 00000+0 0 9992
L22 41586 1.8859 69.5731 0009312 6.5996 262.2048 1.00265991 29376



Live tracking and technical data element details for BEIDOU-2 G7 (NORAD 41586). BEIDOU-2 G7 can be tracked NOW for your location showing map with azimuth and elevation plus other details from your city location.







IsCatalogInMostPopularTable: catalog: 41586, numindb: 708
Update: records affected: 1



GetName: 41586 BEIDOU-2 G7

Hit Count: updated at: Fri, 14 Jun 2024 19:01:50 GMT